Overview Statistics Trail Chart Weather Telemetry Raw packets
 

This is the latest recevied weather packets stored in our database for station/object K1BES. If no packets are shown the sender has not sent any weather packets the latest 10 day(s).

<< 55 56 57 58 59 60 61 >>
Time Temp. Humidity Pressure Rain* Wind** Luminosity Snow
1788270464 30.56° C 79% 1018.7 hPa 0 mm - 549 W/m² -
1788270163 30° C 80% 1018.6 hPa 0 mm - 538 W/m² -
1788269863 30° C 82% 1018.7 hPa 0 mm - 526 W/m² -
1788269563 29.44° C 82% 1018.7 hPa 0 mm - 517 W/m² -
1788269261 29.44° C 84% 1018.7 hPa 0 mm - 264 W/m² -
1788268956 29.44° C 82% 1018.6 hPa 0 mm - 265 W/m² -
1788268651 29.44° C 82% 1018.3 hPa 0 mm - 103 W/m² -
1788268350 28.89° C 84% 1018.4 hPa 0 mm - 104 W/m² -
1788268046 28.89° C 85% 1018.4 hPa 0 mm - 57 W/m² -
1788267744 28.33° C 86% 1018.5 hPa 0 mm - 105 W/m² -
1788267442 27.78° C 88% 1018.4 hPa 0 mm - 64 W/m² -
1788267138 27.78° C 89% 1018.5 hPa 0 mm - 79 W/m² -
1788266833 27.22° C 91% 1018.5 hPa 0 mm - 71 W/m² -
1788266533 27.22° C 92% 1018.3 hPa 0 mm - 69 W/m² -
1788266232 26.67° C 94% 1018.3 hPa 0 mm - 62 W/m² -
1788265928 26.11° C 96% 1018.3 hPa 0 mm - 60 W/m² -
1788265626 25.56° C 97% 1018.4 hPa 0 mm - 55 W/m² -
1788265321 25.56° C 97% 1018.1 hPa 0 mm - 50 W/m² -
1788265015 25.56° C 97% 1018 hPa 0 mm - 39 W/m² -
1788264711 25° C 97% 1018.2 hPa 0 mm - 36 W/m² -
1788264410 25° C 97% 1018.2 hPa 0 mm - 32 W/m² -
1788264105 25° C 97% 1018.3 hPa 0 mm - 30 W/m² -
1788263801 25° C 97% 1018.1 hPa 0 mm - 28 W/m² -
1788263497 25° C 97% 1018.2 hPa 0 mm - 26 W/m² -
1788263194 24.44° C 97% 1018 hPa 0 mm - 22 W/m² -

* Rain latest hour (hover to see other rain measurements)
** Current wind speed in m/s (hover to see current wind gust speed)